Data supplied by UK-AIR on 20/3/2020
All Data GMT hour ending 
Status: R =Ratified P=Provisional,P*=As supplied
,,Bristol Temple Way,,,,,,,,,,,,,,,,,,,,,,,
Date,time,"PM<sub>10</sub> particulate matter (Hourly measured)",status,unit,"Nitric oxide",status,unit,"Nitrogen dioxide",status,unit,"Nitrogen oxides as nitrogen dioxide",status,unit
 
01-01-2019,01:00,23.189,R,ugm-3 (Ref.eq),1.65499,R,ugm-3,18.12621,R,ugm-3,20.66383,R,ugm-3
01-01-2019,02:00,14.493,R,ugm-3 (Ref.eq),2.57558,R,ugm-3,18.17009,R,ugm-3,22.11926,R,ugm-3
01-01-2019,03:00,17.392,R,ugm-3 (Ref.eq),3.35136,R,ugm-3,21.87464,R,ugm-3,27.01332,R,ugm-3
01-01-2019,04:00,15.459,R,ugm-3 (Ref.eq),3.50652,R,ugm-3,21.68472,R,ugm-3,27.06131,R,ugm-3
01-01-2019,05:00,15.459,R,ugm-3 (Ref.eq),2.32733,R,ugm-3,20.08612,R,ugm-3,23.65465,R,ugm-3
01-01-2019,06:00,15.459,R,ugm-3 (Ref.eq),1.52053,R,ugm-3,18.06050,R,ugm-3,20.39194,R,ugm-3
01-01-2019,07:00,13.527,R,ugm-3 (Ref.eq),13.18823,R,ugm-3,28.33515,R,ugm-3,48.55681,R,ugm-3
01-01-2019,08:00,16.425,R,ugm-3 (Ref.eq),4.68570,R,ugm-3,29.95269,R,ugm-3,37.13732,R,ugm-3
01-01-2019,09:00,17.392,R,ugm-3 (Ref.eq),47.50864,R,ugm-3,49.98589,R,ugm-3,122.83146,R,ugm-3
01-01-2019,10:00,22.223,R,ugm-3 (Ref.eq),107.39870,R,ugm-3,63.61807,R,ugm-3,228.29378,R,ugm-3
01-01-2019,11:00,19.324,R,ugm-3 (Ref.eq),12.53657,R,ugm-3,31.97329,R,ugm-3,51.19577,R,ugm-3
01-01-2019,12:00,15.459,R,ugm-3 (Ref.eq),5.58560,R,ugm-3,26.89352,R,ugm-3,35.45799,R,ugm-3
01-01-2019,13:00,10.628,R,ugm-3 (Ref.eq),5.12013,R,ugm-3,24.20057,R,ugm-3,32.05133,R,ugm-3
01-01-2019,14:00,9.662,R,ugm-3 (Ref.eq),3.94095,R,ugm-3,22.88986,R,ugm-3,28.93257,R,ugm-3
01-01-2019,15:00,12.561,R,ugm-3 (Ref.eq),5.64766,R,ugm-3,31.54848,R,ugm-3,40.20811,R,ugm-3
01-01-2019,16:00,11.594,R,ugm-3 (Ref.eq),3.97198,R,ugm-3,29.31972,R,ugm-3,35.41001,R,ugm-3
01-01-2019,17:00,18.358,R,ugm-3 (Ref.eq),6.85788,R,ugm-3,38.66530,R,ugm-3,49.18056,R,ugm-3
01-01-2019,18:00,20.290,R,ugm-3 (Ref.eq),18.74280,R,ugm-3,49.80641,R,ugm-3,78.54496,R,ugm-3
01-01-2019,19:00,26.087,R,ugm-3 (Ref.eq),27.24532,R,ugm-3,44.11048,R,ugm-3,85.88606,R,ugm-3
01-01-2019,20:00,37.682,R,ugm-3 (Ref.eq),19.27032,R,ugm-3,44.34338,R,ugm-3,73.89080,R,ugm-3
01-01-2019,21:00,32.851,R,ugm-3 (Ref.eq),26.68676,R,ugm-3,53.89140,R,ugm-3,94.81053,R,ugm-3
01-01-2019,22:00,36.716,R,ugm-3 (Ref.eq),33.23433,R,ugm-3,63.57215,R,ugm-3,114.53074,R,ugm-3
01-01-2019,23:00,35.749,R,ugm-3 (Ref.eq),23.86293,R,ugm-3,50.92810,R,ugm-3,87.51741,R,ugm-3
01-01-2019,24:00,25.121,R,ugm-3 (Ref.eq),16.66371,R,ugm-3,41.09500,R,ugm-3,66.64566,R,ugm-3
02-01-2019,01:00,17.392,R,ugm-3 (Ref.eq),14.89021,R,ugm-3,39.08018,R,ugm-3,61.91151,R,ugm-3
02-01-2019,02:00,16.425,R,ugm-3 (Ref.eq),11.41582,R,ugm-3,26.23573,R,ugm-3,43.73975,R,ugm-3
02-01-2019,03:00,20.290,R,ugm-3 (Ref.eq),7.66225,R,ugm-3,26.79464,R,ugm-3,38.54326,R,ugm-3
02-01-2019,04:00,16.425,R,ugm-3 (Ref.eq),6.11119,R,ugm-3,24.82125,R,ugm-3,34.19160,R,ugm-3
02-01-2019,05:00,17.392,R,ugm-3 (Ref.eq),24.69292,R,ugm-3,42.95457,R,ugm-3,80.81652,R,ugm-3
02-01-2019,06:00,23.189,R,ugm-3 (Ref.eq),84.40885,R,ugm-3,60.46982,R,ugm-3,189.89491,R,ugm-3
02-01-2019,07:00,24.155,R,ugm-3 (Ref.eq),83.26106,R,ugm-3,66.42199,R,ugm-3,194.08717,R,ugm-3
02-01-2019,08:00,30.918,R,ugm-3 (Ref.eq),178.71348,R,ugm-3,80.03892,R,ugm-3,354.06243,R,ugm-3
02-01-2019,09:00,25.121,R,ugm-3 (Ref.eq),107.08539,R,ugm-3,70.55516,R,ugm-3,234.75047,R,ugm-3
02-01-2019,10:00,30.918,R,ugm-3 (Ref.eq),169.40710,R,ugm-3,87.66146,R,ugm-3,347.41539,R,ugm-3
02-01-2019,11:00,40.580,R,ugm-3 (Ref.eq),168.66259,R,ugm-3,110.22658,R,ugm-3,368.83895,R,ugm-3
02-01-2019,12:00,51.209,R,ugm-3 (Ref.eq),187.92679,R,ugm-3,94.12609,R,ugm-3,382.27648,R,ugm-3
02-01-2019,13:00,48.310,R,ugm-3 (Ref.eq),129.51376,R,ugm-3,76.66938,R,ugm-3,275.25437,R,ugm-3
02-01-2019,14:00,45.411,R,ugm-3 (Ref.eq),127.93168,R,ugm-3,92.77185,R,ugm-3,288.93101,R,ugm-3
02-01-2019,15:00,39.614,R,ugm-3 (Ref.eq),113.22760,R,ugm-3,95.95051,R,ugm-3,269.56374,R,ugm-3
02-01-2019,16:00,36.716,R,ugm-3 (Ref.eq),113.59985,R,ugm-3,98.44023,R,ugm-3,272.62425,R,ugm-3
02-01-2019,17:00,29.952,R,ugm-3 (Ref.eq),106.83722,R,ugm-3,91.64193,R,ugm-3,255.45672,R,ugm-3
02-01-2019,18:00,26.087,R,ugm-3 (Ref.eq),111.02509,R,ugm-3,101.19264,R,ugm-3,271.42874,R,ugm-3
02-01-2019,19:00,24.155,R,ugm-3 (Ref.eq),68.27779,R,ugm-3,71.62275,R,ugm-3,176.31391,R,ugm-3
02-01-2019,20:00,20.290,R,ugm-3 (Ref.eq),25.87173,R,ugm-3,52.52835,R,ugm-3,92.19778,R,ugm-3
02-01-2019,21:00,21.256,R,ugm-3 (Ref.eq),33.28581,R,ugm-3,49.43318,R,ugm-3,100.47072,R,ugm-3
02-01-2019,22:00,21.256,R,ugm-3 (Ref.eq),10.33008,R,ugm-3,22.79967,R,ugm-3,38.63891,R,ugm-3
02-01-2019,23:00,12.561,R,ugm-3 (Ref.eq),3.35030,R,ugm-3,23.41174,R,ugm-3,28.54879,R,ugm-3
02-01-2019,24:00,23.189,R,ugm-3 (Ref.eq),6.45242,R,ugm-3,24.25021,R,ugm-3,34.14378,R,ugm-3
03-01-2019,01:00,23.189,R,ugm-3 (Ref.eq),1.81934,R,ugm-3,13.41473,R,ugm-3,16.20434,R,ugm-3
03-01-2019,02:00,26.087,R,ugm-3 (Ref.eq),8.43510,R,ugm-3,23.98683,R,ugm-3,36.92047,R,ugm-3
03-01-2019,03:00,19.324,R,ugm-3 (Ref.eq),12.68366,R,ugm-3,20.53857,R,ugm-3,39.98658,R,ugm-3
03-01-2019,04:00,14.493,R,ugm-3 (Ref.eq),5.42700,R,ugm-3,17.41502,R,ugm-3,25.73630,R,ugm-3
03-01-2019,05:00,13.527,R,ugm-3 (Ref.eq),4.65171,R,ugm-3,15.64887,R,ugm-3,22.78139,R,ugm-3
03-01-2019,06:00,21.256,R,ugm-3 (Ref.eq),14.94750,R,ugm-3,32.60451,R,ugm-3,55.52368,R,ugm-3
03-01-2019,07:00,20.290,R,ugm-3 (Ref.eq),34.39165,R,ugm-3,49.11590,R,ugm-3,101.84902,R,ugm-3
03-01-2019,08:00,21.256,R,ugm-3 (Ref.eq),49.02903,R,ugm-3,48.97702,R,ugm-3,124.15382,R,ugm-3
03-01-2019,09:00,,,,,,,,,,,,
03-01-2019,10:00,,,,,,,,,,,,
03-01-2019,11:00,,,,,,,,,,,,
03-01-2019,12:00,,,,13.52097,R,ugm-3,32.83777,R,ugm-3,53.56963,R,ugm-3
03-01-2019,13:00,,,,48.71891,R,ugm-3,46.44996,R,ugm-3,121.15125,R,ugm-3
03-01-2019,14:00,,,,73.62107,R,ugm-3,67.41301,R,ugm-3,180.29708,R,ugm-3
03-01-2019,15:00,,,,98.46120,R,ugm-3,75.65068,R,ugm-3,226.62242,R,ugm-3
03-01-2019,16:00,,,,93.03421,R,ugm-3,81.01704,R,ugm-3,223.66751,R,ugm-3
03-01-2019,17:00,,,,65.93024,R,ugm-3,59.85556,R,ugm-3,160.94719,R,ugm-3
03-01-2019,18:00,,,,63.60439,R,ugm-3,74.43124,R,ugm-3,171.95661,R,ugm-3
03-01-2019,19:00,,,,44.12923,R,ugm-3,74.36238,R,ugm-3,142.02625,R,ugm-3
03-01-2019,20:00,,,,18.76190,R,ugm-3,55.11343,R,ugm-3,83.88127,R,ugm-3
03-01-2019,21:00,,,,9.36544,R,ugm-3,30.10646,R,ugm-3,44.46661,R,ugm-3
03-01-2019,22:00,,,,27.19700,R,ugm-3,52.42665,R,ugm-3,94.12813,R,ugm-3
03-01-2019,23:00,,,,36.03525,R,ugm-3,66.08861,R,ugm-3,121.34189,R,ugm-3
03-01-2019,24:00,,,,66.95362,R,ugm-3,75.49160,R,ugm-3,178.15239,R,ugm-3
04-01-2019,01:00,,,,175.07870,R,ugm-3,85.31767,R,ugm-3,353.76793,R,ugm-3
04-01-2019,02:00,,,,52.54225,R,ugm-3,65.11775,R,ugm-3,145.68142,R,ugm-3
04-01-2019,03:00,,,,80.69322,R,ugm-3,66.08630,R,ugm-3,189.81417,R,ugm-3
04-01-2019,04:00,,,,71.02992,R,ugm-3,59.58275,R,ugm-3,168.49377,R,ugm-3
04-01-2019,05:00,,,,73.45351,R,ugm-3,56.58853,R,ugm-3,169.21568,R,ugm-3
04-01-2019,06:00,,,,96.07371,R,ugm-3,56.12324,R,ugm-3,203.43421,R,ugm-3
04-01-2019,07:00,,,,107.22845,R,ugm-3,60.82122,R,ugm-3,225.23588,R,ugm-3
04-01-2019,08:00,,,,126.27541,R,ugm-3,61.50336,R,ugm-3,255.12295,R,ugm-3
04-01-2019,09:00,,,,142.52591,R,ugm-3,65.36642,R,ugm-3,283.90310,R,ugm-3
04-01-2019,10:00,,,,133.54619,R,ugm-3,75.95873,R,ugm-3,280.72669,R,ugm-3
04-01-2019,11:00,,,,139.88481,R,ugm-3,71.00424,R,ugm-3,285.49130,R,ugm-3
04-01-2019,12:00,,,,103.74842,R,ugm-3,77.65962,R,ugm-3,236.73832,R,ugm-3
04-01-2019,13:00,,,,46.32791,R,ugm-3,61.94066,R,ugm-3,132.97580,R,ugm-3
04-01-2019,14:00,,,,67.17703,R,ugm-3,74.73088,R,ugm-3,177.73422,R,ugm-3
04-01-2019,15:00,,,,63.44842,R,ugm-3,76.79032,R,ugm-3,174.07654,R,ugm-3
04-01-2019,16:00,,,,110.58420,R,ugm-3,92.06007,R,ugm-3,261.62014,R,ugm-3
04-01-2019,17:00,,,,171.76438,R,ugm-3,102.20679,R,ugm-3,365.57517,R,ugm-3
04-01-2019,18:00,,,,139.38767,R,ugm-3,95.49329,R,ugm-3,309.21807,R,ugm-3
04-01-2019,19:00,,,,136.80872,R,ugm-3,90.92909,R,ugm-3,300.69953,R,ugm-3
04-01-2019,20:00,,,,231.26670,R,ugm-3,99.14044,R,ugm-3,453.74443,R,ugm-3
04-01-2019,21:00,,,,351.04812,R,ugm-3,116.65038,R,ugm-3,654.91665,R,ugm-3
04-01-2019,22:00,,,,208.67757,R,ugm-3,94.36034,R,ugm-3,414.32815,R,ugm-3
04-01-2019,23:00,,,,174.09476,R,ugm-3,79.28640,R,ugm-3,346.22798,R,ugm-3
04-01-2019,24:00,,,,222.34912,R,ugm-3,78.83598,R,ugm-3,419.76654,R,ugm-3
05-01-2019,01:00,,,,217.59197,R,ugm-3,85.31592,R,ugm-3,418.95229,R,ugm-3
05-01-2019,02:00,,,,141.65063,R,ugm-3,64.02372,R,ugm-3,281.21832,R,ugm-3
05-01-2019,03:00,,,,90.96772,R,ugm-3,56.59827,R,ugm-3,196.08017,R,ugm-3
05-01-2019,04:00,,,,179.41375,R,ugm-3,69.92609,R,ugm-3,345.02335,R,ugm-3
05-01-2019,05:00,,,,168.26850,R,ugm-3,71.17333,R,ugm-3,329.18143,R,ugm-3
05-01-2019,06:00,,,,124.18557,R,ugm-3,57.46704,R,ugm-3,247.88227,R,ugm-3
05-01-2019,07:00,,,,136.60725,R,ugm-3,70.73631,R,ugm-3,280.19783,R,ugm-3
05-01-2019,08:00,,,,106.16014,R,ugm-3,58.71865,R,ugm-3,221.49527,R,ugm-3
05-01-2019,09:00,,,,145.63553,R,ugm-3,70.11093,R,ugm-3,293.41563,R,ugm-3
05-01-2019,10:00,,,,154.41475,R,ugm-3,69.96463,R,ugm-3,306.73062,R,ugm-3
05-01-2019,11:00,,,,167.17888,R,ugm-3,70.41432,R,ugm-3,326.75169,R,ugm-3
05-01-2019,12:00,,,,121.38369,R,ugm-3,63.56121,R,ugm-3,249.68028,R,ugm-3
05-01-2019,13:00,,,,142.27327,R,ugm-3,71.42733,R,ugm-3,289.57664,R,ugm-3
05-01-2019,14:00,,,,117.08748,R,ugm-3,69.85708,R,ugm-3,249.38871,R,ugm-3
05-01-2019,15:00,,,,65.25269,R,ugm-3,67.79385,R,ugm-3,167.84657,R,ugm-3
05-01-2019,16:00,,,,75.65078,R,ugm-3,74.39834,R,ugm-3,190.39457,R,ugm-3
05-01-2019,17:00,,,,108.80636,R,ugm-3,70.74606,R,ugm-3,237.58016,R,ugm-3
05-01-2019,18:00,,,,148.46854,R,ugm-3,79.85955,R,ugm-3,307.50813,R,ugm-3
05-01-2019,19:00,,,,153.26287,R,ugm-3,82.61607,R,ugm-3,317.61586,R,ugm-3
05-01-2019,20:00,,,,163.94115,R,ugm-3,80.67561,R,ugm-3,332.04853,R,ugm-3
05-01-2019,21:00,,,,162.88266,R,ugm-3,84.43677,R,ugm-3,334.18670,R,ugm-3
05-01-2019,22:00,,,,70.17154,R,ugm-3,67.00639,R,ugm-3,174.60125,R,ugm-3
05-01-2019,23:00,,,,62.17062,R,ugm-3,60.22512,R,ugm-3,155.55207,R,ugm-3
05-01-2019,24:00,,,,53.51592,R,ugm-3,61.54115,R,ugm-3,143.59775,R,ugm-3
06-01-2019,01:00,,,,83.84493,R,ugm-3,65.79189,R,ugm-3,194.35232,R,ugm-3
06-01-2019,02:00,,,,71.74231,R,ugm-3,62.10738,R,ugm-3,172.11072,R,ugm-3
06-01-2019,03:00,,,,11.10446,R,ugm-3,44.10508,R,ugm-3,61.13169,R,ugm-3
06-01-2019,04:00,,,,37.46196,R,ugm-3,52.90035,R,ugm-3,110.34122,R,ugm-3
06-01-2019,05:00,,,,58.32962,R,ugm-3,57.50424,R,ugm-3,146.94174,R,ugm-3
06-01-2019,06:00,,,,77.60646,R,ugm-3,59.49391,R,ugm-3,178.48883,R,ugm-3
06-01-2019,07:00,,,,76.85785,R,ugm-3,60.15115,R,ugm-3,177.99820,R,ugm-3
06-01-2019,08:00,,,,79.22846,R,ugm-3,66.37779,R,ugm-3,187.85974,R,ugm-3
06-01-2019,09:00,,,,105.92908,R,ugm-3,77.39444,R,ugm-3,239.81676,R,ugm-3
06-01-2019,10:00,,,,128.63708,R,ugm-3,79.47088,R,ugm-3,276.71165,R,ugm-3
06-01-2019,11:00,,,,89.92743,R,ugm-3,68.27320,R,ugm-3,206.15999,R,ugm-3
06-01-2019,12:00,,,,81.84862,R,ugm-3,68.39494,R,ugm-3,193.89440,R,ugm-3
06-01-2019,13:00,,,,79.44681,R,ugm-3,63.29550,R,ugm-3,185.11224,R,ugm-3
06-01-2019,14:00,,,,56.05258,R,ugm-3,63.44877,R,ugm-3,149.39485,R,ugm-3
06-01-2019,15:00,,,,13.50627,R,ugm-3,46.30985,R,ugm-3,67.01917,R,ugm-3
06-01-2019,16:00,,,,58.39200,R,ugm-3,57.99733,R,ugm-3,147.53048,R,ugm-3
06-01-2019,17:00,,,,84.65593,R,ugm-3,71.59700,R,ugm-3,201.40094,R,ugm-3
06-01-2019,18:00,,,,100.28327,R,ugm-3,69.41909,R,ugm-3,223.18463,R,ugm-3
06-01-2019,19:00,,,,123.83346,R,ugm-3,79.37884,R,ugm-3,269.25417,R,ugm-3
06-01-2019,20:00,,,,89.05404,R,ugm-3,68.97456,R,ugm-3,205.52218,R,ugm-3
06-01-2019,21:00,,,,129.69762,R,ugm-3,73.42913,R,ugm-3,272.29604,R,ugm-3
06-01-2019,22:00,,,,120.18396,R,ugm-3,65.98753,R,ugm-3,250.26704,R,ugm-3
06-01-2019,23:00,,,,76.10923,R,ugm-3,61.10276,R,ugm-3,177.80195,R,ugm-3
06-01-2019,24:00,,,,20.02546,R,ugm-3,48.28510,R,ugm-3,78.99038,R,ugm-3
07-01-2019,01:00,,,,1.33345,R,ugm-3,33.41879,R,ugm-3,35.46338,R,ugm-3
07-01-2019,02:00,,,,0.84382,R,ugm-3,29.61279,R,ugm-3,30.90663,R,ugm-3
07-01-2019,03:00,,,,0.40628,R,ugm-3,20.72441,R,ugm-3,21.34737,R,ugm-3
07-01-2019,04:00,,,,0.56255,R,ugm-3,11.66850,R,ugm-3,12.53106,R,ugm-3
07-01-2019,05:00,,,,1.00008,R,ugm-3,12.03774,R,ugm-3,13.57118,R,ugm-3
07-01-2019,06:00,,,,1.68764,R,ugm-3,16.03555,R,ugm-3,18.62323,R,ugm-3
07-01-2019,07:00,,,,7.75065,R,ugm-3,33.58425,R,ugm-3,45.46841,R,ugm-3
07-01-2019,08:00,,,,11.78223,R,ugm-3,45.03520,R,ugm-3,63.10104,R,ugm-3
07-01-2019,09:00,,,,8.50071,R,ugm-3,37.43669,R,ugm-3,50.47093,R,ugm-3
07-01-2019,10:00,,,,10.56338,R,ugm-3,39.32602,R,ugm-3,55.52297,R,ugm-3
07-01-2019,11:00,,,,9.87583,R,ugm-3,35.92257,R,ugm-3,51.06529,R,ugm-3
07-01-2019,12:00,,,,12.06351,R,ugm-3,35.09419,R,ugm-3,53.59131,R,ugm-3
07-01-2019,13:00,,,,9.50079,R,ugm-3,30.15778,R,ugm-3,44.72547,R,ugm-3
07-01-2019,14:00,,,,8.03192,R,ugm-3,29.58682,R,ugm-3,41.90226,R,ugm-3
07-01-2019,15:00,,,,7.00059,R,ugm-3,25.52178,R,ugm-3,36.25586,R,ugm-3
07-01-2019,16:00,,,,7.06309,R,ugm-3,30.52751,R,ugm-3,41.35743,R,ugm-3
07-01-2019,17:00,,,,7.81315,R,ugm-3,31.21004,R,ugm-3,43.19004,R,ugm-3
07-01-2019,18:00,27.054,R,ugm-3 (Ref.eq),7.43812,R,ugm-3,36.24277,R,ugm-3,47.64773,R,ugm-3
07-01-2019,19:00,15.459,R,ugm-3 (Ref.eq),4.75040,R,ugm-3,25.10869,R,ugm-3,32.39253,R,ugm-3
07-01-2019,20:00,14.493,R,ugm-3 (Ref.eq),3.87532,R,ugm-3,21.59652,R,ugm-3,27.53860,R,ugm-3
07-01-2019,21:00,19.324,R,ugm-3 (Ref.eq),3.90658,R,ugm-3,23.82698,R,ugm-3,29.81698,R,ugm-3
07-01-2019,22:00,22.223,R,ugm-3 (Ref.eq),3.25027,R,ugm-3,23.59505,R,ugm-3,28.57873,R,ugm-3
07-01-2019,23:00,22.223,R,ugm-3 (Ref.eq),2.03142,R,ugm-3,15.60749,R,ugm-3,18.72229,R,ugm-3
07-01-2019,24:00,23.189,R,ugm-3 (Ref.eq),1.87516,R,ugm-3,16.68910,R,ugm-3,19.56430,R,ugm-3
08-01-2019,01:00,11.594,R,ugm-3 (Ref.eq),3.17304,R,ugm-3,14.06708,R,ugm-3,18.93234,R,ugm-3
08-01-2019,02:00,8.696,R,ugm-3 (Ref.eq),0.33400,R,ugm-3,10.62062,R,ugm-3,11.13275,R,ugm-3
08-01-2019,03:00,11.594,R,ugm-3 (Ref.eq),0.53232,R,ugm-3,10.23321,R,ugm-3,11.04942,R,ugm-3
08-01-2019,04:00,12.561,R,ugm-3 (Ref.eq),0.78282,R,ugm-3,13.19893,R,ugm-3,14.39924,R,ugm-3
08-01-2019,05:00,29.952,R,ugm-3 (Ref.eq),1.31514,R,ugm-3,15.78254,R,ugm-3,17.79907,R,ugm-3
08-01-2019,06:00,14.493,R,ugm-3 (Ref.eq),2.59897,R,ugm-3,21.41363,R,ugm-3,25.39867,R,ugm-3
08-01-2019,07:00,13.527,R,ugm-3 (Ref.eq),42.08455,R,ugm-3,66.86435,R,ugm-3,131.39310,R,ugm-3
08-01-2019,08:00,10.628,R,ugm-3 (Ref.eq),24.26751,R,ugm-3,68.58478,R,ugm-3,105.79444,R,ugm-3
08-01-2019,09:00,20.290,R,ugm-3 (Ref.eq),30.59272,R,ugm-3,78.98521,R,ugm-3,125.89338,R,ugm-3
08-01-2019,10:00,21.256,R,ugm-3 (Ref.eq),54.20265,R,ugm-3,82.33173,R,ugm-3,165.44131,R,ugm-3
08-01-2019,11:00,23.189,R,ugm-3 (Ref.eq),37.66943,R,ugm-3,61.93472,R,ugm-3,119.69371,R,ugm-3
08-01-2019,12:00,28.986,R,ugm-3 (Ref.eq),46.56230,R,ugm-3,66.09824,R,ugm-3,137.49278,R,ugm-3
08-01-2019,13:00,49.276,R,ugm-3 (Ref.eq),57.24000,R,ugm-3,63.92525,R,ugm-3,151.69203,R,ugm-3
08-01-2019,14:00,39.614,R,ugm-3 (Ref.eq),31.84523,R,ugm-3,55.51584,R,ugm-3,104.34452,R,ugm-3
08-01-2019,15:00,50.242,R,ugm-3 (Ref.eq),32.65937,R,ugm-3,53.61755,R,ugm-3,103.69455,R,ugm-3
08-01-2019,16:00,47.344,R,ugm-3 (Ref.eq),46.28048,R,ugm-3,65.68040,R,ugm-3,136.64282,R,ugm-3
08-01-2019,17:00,43.479,R,ugm-3 (Ref.eq),42.64819,R,ugm-3,77.19953,R,ugm-3,142.59251,R,ugm-3
08-01-2019,18:00,32.851,R,ugm-3 (Ref.eq),22.63924,R,ugm-3,71.78139,R,ugm-3,106.49440,R,ugm-3
08-01-2019,19:00,39.614,R,ugm-3 (Ref.eq),20.00895,R,ugm-3,64.06506,R,ugm-3,94.74502,R,ugm-3
08-01-2019,20:00,34.783,R,ugm-3 (Ref.eq),11.52315,R,ugm-3,55.07759,R,ugm-3,72.74618,R,ugm-3
08-01-2019,21:00,36.716,R,ugm-3 (Ref.eq),14.40394,R,ugm-3,56.21015,R,ugm-3,78.29589,R,ugm-3
08-01-2019,22:00,42.513,R,ugm-3 (Ref.eq),19.94633,R,ugm-3,54.71158,R,ugm-3,85.29552,R,ugm-3
08-01-2019,23:00,33.817,R,ugm-3 (Ref.eq),12.49385,R,ugm-3,41.28985,R,ugm-3,60.44682,R,ugm-3
08-01-2019,24:00,30.918,R,ugm-3 (Ref.eq),6.01208,R,ugm-3,31.62946,R,ugm-3,40.84785,R,ugm-3
09-01-2019,01:00,22.223,R,ugm-3 (Ref.eq),3.80662,R,ugm-3,26.93180,R,ugm-3,32.76853,R,ugm-3
09-01-2019,02:00,23.189,R,ugm-3 (Ref.eq),2.82359,R,ugm-3,15.65465,R,ugm-3,19.98410,R,ugm-3
09-01-2019,03:00,24.155,R,ugm-3 (Ref.eq),1.69415,R,ugm-3,13.85389,R,ugm-3,16.45155,R,ugm-3
09-01-2019,04:00,18.358,R,ugm-3 (Ref.eq),2.82359,R,ugm-3,15.55372,R,ugm-3,19.88317,R,ugm-3
09-01-2019,05:00,20.290,R,ugm-3 (Ref.eq),9.81982,R,ugm-3,25.46646,R,ugm-3,40.52330,R,ugm-3
09-01-2019,06:00,20.290,R,ugm-3 (Ref.eq),40.34595,R,ugm-3,59.75744,R,ugm-3,121.62037,R,ugm-3
09-01-2019,07:00,26.087,R,ugm-3 (Ref.eq),84.92729,R,ugm-3,89.15082,R,ugm-3,219.37085,R,ugm-3
09-01-2019,08:00,36.716,R,ugm-3 (Ref.eq),106.57481,R,ugm-3,98.90404,R,ugm-3,262.31647,R,ugm-3
09-01-2019,09:00,30.918,R,ugm-3 (Ref.eq),205.68279,R,ugm-3,124.32465,R,ugm-3,439.70054,R,ugm-3
09-01-2019,10:00,34.783,R,ugm-3 (Ref.eq),215.75360,R,ugm-3,127.65591,R,ugm-3,458.47347,R,ugm-3
09-01-2019,11:00,26.087,R,ugm-3 (Ref.eq),121.06923,R,ugm-3,89.90137,R,ugm-3,275.53827,R,ugm-3
09-01-2019,12:00,36.716,R,ugm-3 (Ref.eq),88.40972,R,ugm-3,84.41675,R,ugm-3,219.97643,R,ugm-3
09-01-2019,13:00,40.580,R,ugm-3 (Ref.eq),80.12719,R,ugm-3,75.92120,R,ugm-3,198.78118,R,ugm-3
09-01-2019,14:00,49.276,R,ugm-3 (Ref.eq),81.16251,R,ugm-3,79.88488,R,ugm-3,204.33232,R,ugm-3
09-01-2019,15:00,51.209,R,ugm-3 (Ref.eq),59.76597,R,ugm-3,71.05891,R,ugm-3,162.69879,R,ugm-3
09-01-2019,16:00,41.547,R,ugm-3 (Ref.eq),65.03667,R,ugm-3,86.44345,R,ugm-3,186.16496,R,ugm-3
09-01-2019,17:00,34.783,R,ugm-3 (Ref.eq),83.95472,R,ugm-3,89.98603,R,ugm-3,218.71481,R,ugm-3
09-01-2019,18:00,40.580,R,ugm-3 (Ref.eq),90.29211,R,ugm-3,98.53712,R,ugm-3,236.98310,R,ugm-3
09-01-2019,19:00,46.378,R,ugm-3 (Ref.eq),92.30000,R,ugm-3,101.81699,R,ugm-3,243.34167,R,ugm-3
09-01-2019,20:00,40.580,R,ugm-3 (Ref.eq),75.32709,R,ugm-3,87.77263,R,ugm-3,203.27255,R,ugm-3
09-01-2019,21:00,40.580,R,ugm-3 (Ref.eq),69.52304,R,ugm-3,93.34136,R,ugm-3,199.94187,R,ugm-3
09-01-2019,22:00,50.242,R,ugm-3 (Ref.eq),103.81397,R,ugm-3,99.85706,R,ugm-3,259.03625,R,ugm-3
09-01-2019,23:00,35.749,R,ugm-3 (Ref.eq),82.60567,R,ugm-3,91.04525,R,ugm-3,217.70551,R,ugm-3
09-01-2019,24:00,30.918,R,ugm-3 (Ref.eq),51.20109,R,ugm-3,80.65901,R,ugm-3,159.16625,R,ugm-3
10-01-2019,01:00,31.885,R,ugm-3 (Ref.eq),13.32781,R,ugm-3,46.45552,R,ugm-3,66.89121,R,ugm-3
10-01-2019,02:00,27.054,R,ugm-3 (Ref.eq),23.66944,R,ugm-3,47.08370,R,ugm-3,83.37633,R,ugm-3
10-01-2019,03:00,30.918,R,ugm-3 (Ref.eq),53.24838,R,ugm-3,62.89977,R,ugm-3,144.54614,R,ugm-3
10-01-2019,04:00,25.121,R,ugm-3 (Ref.eq),45.64147,R,ugm-3,58.51983,R,ugm-3,128.50244,R,ugm-3
10-01-2019,05:00,28.020,R,ugm-3 (Ref.eq),100.36722,R,ugm-3,69.13871,R,ugm-3,223.03296,R,ugm-3
10-01-2019,06:00,34.783,R,ugm-3 (Ref.eq),138.21317,R,ugm-3,70.08877,R,ugm-3,282.01268,R,ugm-3
10-01-2019,07:00,34.783,R,ugm-3 (Ref.eq),206.45534,R,ugm-3,90.69501,R,ugm-3,407.25544,R,ugm-3
10-01-2019,08:00,35.749,R,ugm-3 (Ref.eq),174.17311,R,ugm-3,83.25130,R,ugm-3,350.31302,R,ugm-3
10-01-2019,09:00,41.547,R,ugm-3 (Ref.eq),172.75861,R,ugm-3,87.76308,R,ugm-3,352.65591,R,ugm-3
10-01-2019,10:00,52.175,R,ugm-3 (Ref.eq),256.15173,R,ugm-3,110.09505,R,ugm-3,502.85555,R,ugm-3
10-01-2019,11:00,33.817,R,ugm-3 (Ref.eq),121.20764,R,ugm-3,92.80202,R,ugm-3,278.65114,R,ugm-3
10-01-2019,12:00,48.310,R,ugm-3 (Ref.eq),78.01799,R,ugm-3,80.53840,R,ugm-3,200.16432,R,ugm-3
10-01-2019,13:00,37.682,R,ugm-3 (Ref.eq),53.97135,R,ugm-3,67.39379,R,ugm-3,150.14870,R,ugm-3
10-01-2019,14:00,30.918,R,ugm-3 (Ref.eq),28.88740,R,ugm-3,60.16895,R,ugm-3,104.46235,R,ugm-3
10-01-2019,15:00,42.513,R,ugm-3 (Ref.eq),45.61003,R,ugm-3,73.94961,R,ugm-3,143.88402,R,ugm-3
10-01-2019,16:00,32.851,R,ugm-3 (Ref.eq),51.39380,R,ugm-3,85.60705,R,ugm-3,164.40977,R,ugm-3
10-01-2019,17:00,25.121,R,ugm-3 (Ref.eq),61.92403,R,ugm-3,88.61151,R,ugm-3,183.56036,R,ugm-3
10-01-2019,18:00,27.054,R,ugm-3 (Ref.eq),56.67463,R,ugm-3,89.42807,R,ugm-3,176.32796,R,ugm-3
10-01-2019,19:00,22.223,R,ugm-3 (Ref.eq),45.73577,R,ugm-3,84.09610,R,ugm-3,154.22329,R,ugm-3
10-01-2019,20:00,28.986,R,ugm-3 (Ref.eq),53.34268,R,ugm-3,85.57289,R,ugm-3,167.36385,R,ugm-3
10-01-2019,21:00,27.054,R,ugm-3 (Ref.eq),38.12886,R,ugm-3,76.40556,R,ugm-3,134.86899,R,ugm-3
10-01-2019,22:00,27.054,R,ugm-3 (Ref.eq),64.37584,R,ugm-3,75.27682,R,ugm-3,173.98507,R,ugm-3
10-01-2019,23:00,18.358,R,ugm-3 (Ref.eq),38.09742,R,ugm-3,67.43872,R,ugm-3,125.85395,R,ugm-3
10-01-2019,24:00,16.425,R,ugm-3 (Ref.eq),22.91503,R,ugm-3,64.43694,R,ugm-3,99.57283,R,ugm-3
11-01-2019,01:00,16.425,R,ugm-3 (Ref.eq),8.81827,R,ugm-3,54.18966,R,ugm-3,67.71081,R,ugm-3
11-01-2019,02:00,12.561,R,ugm-3 (Ref.eq),5.41694,R,ugm-3,33.17387,R,ugm-3,41.47973,R,ugm-3
11-01-2019,03:00,10.628,R,ugm-3 (Ref.eq),9.22769,R,ugm-3,29.79800,R,ugm-3,43.94692,R,ugm-3
11-01-2019,04:00,11.594,R,ugm-3 (Ref.eq),24.75414,R,ugm-3,60.16660,R,ugm-3,98.12243,R,ugm-3
11-01-2019,05:00,9.662,R,ugm-3 (Ref.eq),21.06936,R,ugm-3,47.51815,R,ugm-3,79.82406,R,ugm-3
11-01-2019,06:00,8.696,R,ugm-3 (Ref.eq),33.57241,R,ugm-3,59.59822,R,ugm-3,111.07520,R,ugm-3
11-01-2019,07:00,13.527,R,ugm-3 (Ref.eq),107.01599,R,ugm-3,100.72342,R,ugm-3,264.81233,R,ugm-3
11-01-2019,08:00,18.358,R,ugm-3 (Ref.eq),138.50981,R,ugm-3,122.38885,R,ugm-3,334.76760,R,ugm-3
11-01-2019,09:00,16.425,R,ugm-3 (Ref.eq),142.88745,R,ugm-3,112.33556,R,ugm-3,331.42661,R,ugm-3
11-01-2019,10:00,17.392,R,ugm-3 (Ref.eq),128.14835,R,ugm-3,109.90346,R,ugm-3,306.39485,R,ugm-3
11-01-2019,11:00,23.189,R,ugm-3 (Ref.eq),80.81314,R,ugm-3,92.37906,R,ugm-3,216.29081,R,ugm-3
11-01-2019,12:00,16.425,R,ugm-3 (Ref.eq),50.13816,R,ugm-3,76.44849,R,ugm-3,153.32592,R,ugm-3
11-01-2019,13:00,15.459,R,ugm-3 (Ref.eq),47.24073,R,ugm-3,66.19078,R,ugm-3,138.62555,R,ugm-3
11-01-2019,14:00,17.392,R,ugm-3 (Ref.eq),61.88535,R,ugm-3,79.97294,R,ugm-3,174.86249,R,ugm-3
11-01-2019,15:00,10.628,R,ugm-3 (Ref.eq),61.69639,R,ugm-3,76.30488,R,ugm-3,170.90469,R,ugm-3
11-01-2019,16:00,12.561,R,ugm-3 (Ref.eq),66.01104,R,ugm-3,83.00175,R,ugm-3,184.21727,R,ugm-3
11-01-2019,17:00,,,,,,,,,,,,
11-01-2019,18:00,27.054,R,ugm-3 (Ref.eq),26.67526,R,ugm-3,76.65009,R,ugm-3,117.55159,R,ugm-3
11-01-2019,19:00,17.392,R,ugm-3 (Ref.eq),13.98326,R,ugm-3,68.35495,R,ugm-3,89.79564,R,ugm-3
11-01-2019,20:00,15.459,R,ugm-3 (Ref.eq),13.22740,R,ugm-3,68.22890,R,ugm-3,88.51064,R,ugm-3
11-01-2019,21:00,18.358,R,ugm-3 (Ref.eq),16.15633,R,ugm-3,68.00414,R,ugm-3,92.77683,R,ugm-3
11-01-2019,22:00,16.425,R,ugm-3 (Ref.eq),9.35366,R,ugm-3,61.06158,R,ugm-3,75.40367,R,ugm-3
11-01-2019,23:00,15.459,R,ugm-3 (Ref.eq),11.74719,R,ugm-3,58.83075,R,ugm-3,76.84286,R,ugm-3
11-01-2019,24:00,22.223,R,ugm-3 (Ref.eq),8.94425,R,ugm-3,48.42817,R,ugm-3,62.14249,R,ugm-3
12-01-2019,01:00,17.392,R,ugm-3 (Ref.eq),2.68614,R,ugm-3,29.23458,R,ugm-3,33.35327,R,ugm-3
12-01-2019,02:00,13.527,R,ugm-3 (Ref.eq),1.13321,R,ugm-3,16.71608,R,ugm-3,18.45365,R,ugm-3
12-01-2019,03:00,14.493,R,ugm-3 (Ref.eq),1.25913,R,ugm-3,15.80538,R,ugm-3,17.73601,R,ugm-3
12-01-2019,04:00,9.662,R,ugm-3 (Ref.eq),1.03878,R,ugm-3,10.96596,R,ugm-3,12.55874,R,ugm-3
12-01-2019,05:00,15.459,R,ugm-3 (Ref.eq),2.23495,R,ugm-3,10.36210,R,ugm-3,13.78898,R,ugm-3
12-01-2019,06:00,6.763,R,ugm-3 (Ref.eq),1.16469,R,ugm-3,10.77290,R,ugm-3,12.55874,R,ugm-3
12-01-2019,07:00,13.527,R,ugm-3 (Ref.eq),2.01460,R,ugm-3,15.10834,R,ugm-3,18.19735,R,ugm-3
12-01-2019,08:00,10.628,R,ugm-3 (Ref.eq),3.30521,R,ugm-3,16.46135,R,ugm-3,21.52926,R,ugm-3
12-01-2019,09:00,8.696,R,ugm-3 (Ref.eq),5.13094,R,ugm-3,21.70977,R,ugm-3,29.57711,R,ugm-3
12-01-2019,10:00,14.493,R,ugm-3 (Ref.eq),5.91790,R,ugm-3,25.62914,R,ugm-3,34.70312,R,ugm-3
12-01-2019,11:00,10.628,R,ugm-3 (Ref.eq),7.55476,R,ugm-3,29.98817,R,ugm-3,41.57198,R,ugm-3
12-01-2019,12:00,8.696,R,ugm-3 (Ref.eq),8.65650,R,ugm-3,26.60728,R,ugm-3,39.88040,R,ugm-3
12-01-2019,13:00,15.459,R,ugm-3 (Ref.eq),9.44345,R,ugm-3,34.78124,R,ugm-3,49.26100,R,ugm-3
12-01-2019,14:00,12.561,R,ugm-3 (Ref.eq),6.39007,R,ugm-3,29.36478,R,ugm-3,39.16275,R,ugm-3
12-01-2019,15:00,22.223,R,ugm-3 (Ref.eq),7.33442,R,ugm-3,31.24872,R,ugm-3,42.49466,R,ugm-3
12-01-2019,16:00,15.459,R,ugm-3 (Ref.eq),5.09946,R,ugm-3,28.31933,R,ugm-3,36.13840,R,ugm-3
12-01-2019,17:00,14.493,R,ugm-3 (Ref.eq),5.03651,R,ugm-3,26.46798,R,ugm-3,34.19052,R,ugm-3